Time[GMT],temperature[C](51m),dissolved_oxygen[ml/l](51m),oxygen_saturation[ml/l](51m),percent_oxygen_saturation[%](51m)
2017-06-28 01:00,6.04,7.898,8.6886,90.90
2017-06-28 02:00,5.51,8.117,8.8041,92.20
2017-06-28 03:00,5.51,8.113,8.8088,92.10
2017-06-28 04:00,5.55,8.171,8.7956,92.90
2017-06-28 05:00,5.57,8.162,8.7955,92.80
2017-06-28 06:00,5.56,8.180,8.7958,93.00
2017-06-28 07:00,5.56,8.202,8.7915,93.30
2017-06-28 08:00,5.54,8.191,8.7984,93.10
2017-06-28 09:00,5.61,8.211,8.7823,93.50
2017-06-28 10:00,5.64,8.218,8.7801,93.60
2017-06-28 11:00,5.62,8.171,8.7862,93.00
2017-06-28 12:00,5.57,8.149,8.7904,92.70
2017-06-28 13:00,5.53,8.099,8.8038,92.00
2017-06-28 14:00,5.52,8.048,8.8052,91.40
2017-06-28 15:00,5.51,8.008,8.8093,90.90
2017-06-28 16:00,5.51,7.981,8.8088,90.60
2017-06-28 17:00,5.54,7.981,8.7991,90.70
2017-06-28 18:00,5.54,7.958,8.8035,90.40
2017-06-28 19:00,5.63,7.983,8.7822,90.90
2017-06-28 20:00,5.62,7.988,8.7871,90.90
2017-06-28 21:00,5.64,7.983,8.7822,90.90
2017-06-28 22:00,5.60,7.979,8.7870,90.80
2017-06-28 23:00,5.63,7.992,8.7824,91.00
2017-06-29 00:00,5.64,7.992,8.7728,91.10
2017-06-29 01:00,5.65,7.990,8.7799,91.00
2017-06-29 02:00,5.63,7.981,8.7798,90.90
2017-06-29 03:00,5.61,7.974,8.7820,90.80
2017-06-29 04:00,5.54,7.949,8.8034,90.30
2017-06-29 05:00,5.55,7.954,8.7986,90.40
2017-06-29 06:00,5.67,7.981,8.7701,91.00
2017-06-29 07:00,5.67,7.992,8.7728,91.10
2017-06-29 08:00,5.63,7.979,8.7773,90.90
2017-06-29 09:00,5.64,7.985,8.7750,91.00
2017-06-29 10:00,5.75,7.990,8.7511,91.30
2017-06-29 11:00,5.79,7.999,8.7418,91.50
2017-06-29 12:00,5.70,7.990,8.7607,91.20
2017-06-29 13:00,5.84,7.992,8.7344,91.50
2017-06-29 14:00,5.67,7.974,8.7724,90.90
2017-06-29 15:00,5.62,7.972,8.7796,90.80
2017-06-29 16:00,5.60,7.961,8.7866,90.60
2017-06-29 17:00,5.60,7.958,8.7841,90.60
2017-06-29 18:00,5.84,8.001,8.7347,91.60
2017-06-29 19:00,5.81,8.001,8.7347,91.60
2017-06-29 20:00,5.70,7.990,8.7607,91.20
2017-06-29 21:00,5.66,7.979,8.7773,90.90
2017-06-29 22:00,5.71,7.985,8.7654,91.10
2017-06-29 23:00,5.74,7.992,8.7536,91.30
2017-06-30 00:00,5.80,7.996,8.7393,91.50
2017-06-30 01:00,5.80,7.994,8.7464,91.40
2017-06-30 02:00,5.78,7.990,8.7511,91.30
2017-06-30 03:00,5.74,7.961,8.7576,90.90
2017-06-30 04:00,5.65,7.956,8.7720,90.70
2017-06-30 05:00,5.66,7.965,8.7722,90.80
2017-06-30 06:00,5.68,7.979,8.7676,91.00
2017-06-30 07:00,5.80,8.014,8.7398,91.70
2017-06-30 08:00,5.73,7.981,8.7605,91.10
2017-06-30 09:00,5.62,7.945,8.7790,90.50
2017-06-30 10:00,5.61,7.945,8.7887,90.40
2017-06-30 11:00,5.61,7.940,8.7837,90.40
2017-06-30 12:00,5.61,7.940,8.7837,90.40
2017-06-30 13:00,5.62,7.936,8.7788,90.40
2017-06-30 14:00,5.61,7.945,8.7887,90.40
2017-06-30 15:00,5.60,7.949,8.7839,90.50
2017-06-30 16:00,5.63,7.938,8.7812,90.40
2017-06-30 17:00,5.62,7.940,8.7837,90.40
2017-06-30 18:00,5.61,7.934,8.7860,90.30
2017-06-30 19:00,5.59,7.929,8.7908,90.20
2017-06-30 20:00,5.61,7.947,8.7814,90.50
2017-06-30 21:00,5.68,7.965,8.7722,90.80
2017-06-30 22:00,5.69,7.985,8.7654,91.10
2017-06-30 23:00,5.62,7.923,8.7833,90.20
2017-07-01 00:00,5.59,7.927,8.7883,90.20
2017-07-01 01:00,5.76,8.001,8.7538,91.40
2017-07-01 02:00,5.66,7.914,8.7734,90.20
2017-07-01 03:00,5.61,7.936,8.7788,90.40
2017-07-01 04:00,5.55,7.889,8.7949,89.70
2017-07-01 05:00,5.56,7.902,8.8000,89.80
2017-07-01 06:00,5.66,7.954,8.7695,90.70
2017-07-01 07:00,5.70,7.972,8.7603,91.00
2017-07-01 08:00,5.84,7.992,8.7344,91.50
2017-07-01 09:00,5.97,7.972,8.7029,91.60
2017-07-01 10:00,5.84,7.949,8.7357,91.00
2017-07-01 11:00,5.89,7.967,8.7266,91.30
2017-07-01 12:00,5.91,7.974,8.7148,91.50
2017-07-01 13:00,5.96,7.965,8.7051,91.50
2017-07-01 14:00,5.97,7.974,8.7053,91.60
2017-07-01 15:00,6.00,7.974,8.6958,91.70
2017-07-01 16:00,6.00,7.983,8.6961,91.80
2017-07-01 17:00,6.01,7.983,8.6961,91.80
2017-07-01 18:00,5.87,7.967,8.7266,91.30
2017-07-01 19:00,5.93,7.954,8.7119,91.30
2017-07-01 20:00,5.81,7.945,8.7403,90.90
2017-07-01 21:00,5.82,7.945,8.7403,90.90
2017-07-01 22:00,5.56,7.905,8.7927,89.90
2017-07-01 23:00,5.54,7.918,8.7979,90.00
2017-07-02 00:00,5.53,7.893,8.7998,89.70
2017-07-02 01:00,5.52,7.885,8.7997,89.60
2017-07-02 02:00,5.52,7.885,8.7997,89.60
2017-07-02 03:00,5.58,7.887,8.7924,89.70
2017-07-02 04:00,5.59,7.887,8.7924,89.70
2017-07-02 05:00,5.57,7.898,8.7950,89.80
2017-07-02 06:00,5.58,7.889,8.7949,89.70
2017-07-02 07:00,5.56,7.887,8.7924,89.70
2017-07-02 08:00,5.51,7.891,8.8072,89.60
2017-07-02 09:00,5.59,7.882,8.7874,89.70
2017-07-02 10:00,5.53,7.893,8.7998,89.70
2017-07-02 11:00,5.53,7.898,8.8048,89.70
2017-07-02 12:00,5.50,7.882,8.8070,89.50
2017-07-02 13:00,5.50,7.878,8.8118,89.40
2017-07-02 14:00,5.50,7.885,8.8095,89.50
2017-07-02 15:00,5.50,7.878,8.8118,89.40
2017-07-02 16:00,5.53,7.871,8.8043,89.40
2017-07-02 17:00,5.54,7.878,8.8020,89.50
2017-07-02 18:00,5.54,7.862,8.8042,89.30
2017-07-02 19:00,5.51,7.873,8.8068,89.40
2017-07-02 20:00,5.50,7.871,8.8043,89.40
2017-07-02 21:00,5.48,7.911,8.8100,89.80
2017-07-02 22:00,5.49,7.936,8.8080,90.10
2017-07-02 23:00,5.49,7.923,8.8127,89.90
2017-07-03 00:00,5.48,7.927,8.8176,89.90
2017-07-03 01:00,5.48,7.900,8.8073,89.70
2017-07-03 02:00,5.48,7.889,8.8145,89.50
2017-07-03 03:00,5.48,7.905,8.8123,89.70
2017-07-03 04:00,5.52,7.952,8.8059,90.30
2017-07-03 05:00,5.55,7.981,8.7991,90.70
2017-07-03 06:00,5.48,7.887,8.8120,89.50
2017-07-03 07:00,5.48,7.882,8.8169,89.40
2017-07-03 08:00,5.48,7.887,8.8120,89.50
2017-07-03 09:00,5.53,7.923,8.8029,90.00
2017-07-03 10:00,5.48,7.918,8.8175,89.80
2017-07-03 11:00,5.52,7.945,8.7984,90.30
2017-07-03 12:00,5.77,7.932,8.7448,90.70
2017-07-03 13:00,5.71,7.920,8.7614,90.40
2017-07-03 14:00,5.49,7.891,8.8072,89.60
2017-07-03 15:00,5.50,7.909,8.8075,89.80
2017-07-03 16:00,5.49,7.902,8.8098,89.70
2017-07-03 17:00,5.48,7.898,8.8147,89.60
2017-07-03 18:00,5.48,7.905,8.8123,89.70
2017-07-03 19:00,5.48,7.898,8.8147,89.60
2017-07-03 20:00,5.47,7.891,8.8170,89.50
2017-07-03 21:00,5.47,7.891,8.8170,89.50
2017-07-03 22:00,5.58,7.925,8.7956,90.10
2017-07-03 23:00,5.60,7.923,8.7833,90.20
2017-07-04 00:00,5.55,7.905,8.8025,89.80
2017-07-04 01:00,5.57,7.909,8.7977,89.90
2017-07-04 02:00,5.57,7.907,8.7952,89.90
2017-07-04 03:00,5.55,7.902,8.8000,89.80
2017-07-04 04:00,5.53,7.918,8.8077,89.90
2017-07-04 05:00,5.51,7.905,8.8025,89.80
2017-07-04 06:00,5.56,7.914,8.7929,90.00
2017-07-04 07:00,5.60,7.918,8.7881,90.10
2017-07-04 08:00,5.49,7.858,8.8090,89.20
2017-07-04 09:00,5.49,7.846,8.8063,89.10
2017-07-04 10:00,5.51,7.864,8.8067,89.30
2017-07-04 11:00,5.52,7.867,8.7993,89.40
2017-07-04 12:00,5.56,7.896,8.7925,89.80
2017-07-04 13:00,5.54,7.887,8.8022,89.60
2017-07-04 14:00,5.53,7.885,8.7997,89.60
2017-07-04 15:00,5.54,7.887,8.8022,89.60
2017-07-04 16:00,5.54,7.889,8.7949,89.70
2017-07-04 17:00,5.52,7.889,8.8047,89.60
2017-07-04 18:00,5.57,7.891,8.7876,89.80
2017-07-04 19:00,5.53,7.882,8.7972,89.60
2017-07-04 20:00,5.49,7.849,8.8088,89.10
2017-07-04 21:00,5.53,7.882,8.7972,89.60
2017-07-04 22:00,5.53,7.880,8.8045,89.50
2017-07-04 23:00,5.53,7.880,8.8045,89.50
2017-07-05 00:00,5.53,7.876,8.7995,89.50
2017-07-05 01:00,5.54,7.864,8.7968,89.40
2017-07-05 02:00,5.54,7.873,8.7970,89.50
2017-07-05 03:00,5.52,7.855,8.8065,89.20
2017-07-05 04:00,5.52,7.855,8.8065,89.20
2017-07-05 05:00,5.66,7.893,8.7705,90.00
2017-07-05 06:00,5.55,7.873,8.7970,89.50
2017-07-05 07:00,5.54,7.869,8.8018,89.40
2017-07-05 08:00,5.54,7.871,8.8043,89.40
2017-07-05 09:00,5.54,7.862,8.7943,89.40
2017-07-05 10:00,5.51,7.846,8.8063,89.10
2017-07-05 11:00,5.53,7.858,8.7991,89.30
2017-07-05 12:00,5.55,7.864,8.7968,89.40
2017-07-05 13:00,5.57,7.867,8.7895,89.50
2017-07-05 14:00,5.58,7.869,8.7920,89.50
2017-07-05 15:00,5.56,7.851,8.7916,89.30
2017-07-05 16:00,5.58,7.853,8.7941,89.30
2017-07-05 17:00,5.57,7.853,8.7941,89.30
2017-07-05 18:00,5.57,7.864,8.7968,89.40
2017-07-05 19:00,5.57,7.869,8.7920,89.50
2017-07-05 20:00,5.53,7.824,8.8010,88.90
2017-07-05 21:00,5.52,7.813,8.8082,88.70
2017-07-05 22:00,5.55,7.844,8.7939,89.20
2017-07-05 23:00,5.52,7.844,8.8038,89.10
2017-07-06 00:00,5.56,7.855,8.7966,89.30
2017-07-06 01:00,5.58,7.862,8.7943,89.40
2017-07-06 02:00,5.63,7.867,8.7797,89.60
2017-07-06 03:00,5.62,7.862,8.7845,89.50
2017-07-06 04:00,5.64,7.860,8.7722,89.60
2017-07-06 05:00,5.59,7.840,8.7889,89.20
2017-07-06 06:00,5.60,7.849,8.7891,89.30
2017-07-06 07:00,5.61,7.855,8.7868,89.40
2017-07-06 08:00,5.59,7.862,8.7845,89.50
2017-07-06 09:00,5.57,7.858,8.7893,89.40
2017-07-06 10:00,5.55,7.849,8.7990,89.20
2017-07-06 11:00,5.55,7.846,8.7965,89.20
2017-07-06 12:00,5.56,7.846,8.7965,89.20
2017-07-06 13:00,5.54,7.840,8.7988,89.10
2017-07-06 14:00,5.61,7.849,8.7891,89.30
2017-07-06 15:00,5.59,7.842,8.7914,89.20
2017-07-06 16:00,5.59,7.837,8.7864,89.20
2017-07-06 17:00,5.59,7.840,8.7889,89.20
2017-07-06 18:00,5.60,7.849,8.7891,89.30
2017-07-06 19:00,5.62,7.853,8.7843,89.40
2017-07-06 20:00,5.62,7.860,8.7820,89.50
2017-07-06 21:00,5.55,7.824,8.8010,88.90
2017-07-06 22:00,5.57,7.833,8.7912,89.10
2017-07-06 23:00,5.60,7.840,8.7889,89.20
2017-07-07 00:00,5.60,7.831,8.7887,89.10
2017-07-07 01:00,5.62,7.860,8.7820,89.50
2017-07-07 02:00,5.64,7.842,8.7816,89.30
2017-07-07 03:00,5.73,7.887,8.7533,90.10
2017-07-07 04:00,5.65,7.822,8.7688,89.20
2017-07-07 05:00,5.62,7.799,8.7831,88.80
2017-07-07 06:00,5.59,7.790,8.7928,88.60
2017-07-07 07:00,5.57,7.777,8.7975,88.40
2017-07-07 08:00,5.56,7.777,8.7975,88.40
2017-07-07 09:00,5.56,7.770,8.7999,88.30
2017-07-07 10:00,5.60,7.797,8.7905,88.70
2017-07-07 11:00,5.64,7.817,8.7737,89.10
2017-07-07 12:00,5.67,7.846,8.7670,89.50
2017-07-07 13:00,5.66,7.837,8.7766,89.30
2017-07-07 14:00,5.64,7.817,8.7737,89.10
2017-07-07 15:00,5.64,7.811,8.7760,89.00
2017-07-07 16:00,5.63,7.799,8.7831,88.80
2017-07-07 17:00,5.63,7.795,8.7781,88.80
2017-07-07 18:00,5.62,7.795,8.7781,88.80
2017-07-07 19:00,5.63,7.804,8.7783,88.90
2017-07-07 20:00,5.65,7.817,8.7737,89.10
2017-07-07 21:00,5.65,7.820,8.7762,89.10
2017-07-07 22:00,5.69,7.853,8.7647,89.60
2017-07-07 23:00,5.70,7.855,8.7672,89.60
2017-07-08 00:00,5.76,7.876,8.7506,90.00
2017-07-08 01:00,5.81,7.893,8.7414,90.30
2017-07-08 02:00,5.79,7.887,8.7436,90.20
2017-07-08 03:00,5.79,7.885,8.7411,90.20
2017-07-08 04:00,5.74,7.891,8.7583,90.10
2017-07-08 05:00,5.72,7.869,8.7626,89.80
2017-07-08 06:00,5.69,7.837,8.7668,89.40
2017-07-08 07:00,5.70,7.844,8.7645,89.50
2017-07-08 08:00,5.68,7.837,8.7668,89.40
2017-07-08 09:00,5.75,7.887,8.7533,90.10
2017-07-08 10:00,5.77,7.885,8.7508,90.10
2017-07-08 11:00,5.74,7.869,8.7529,89.90
2017-07-08 12:00,5.80,7.898,8.7463,90.30
2017-07-08 13:00,5.77,7.880,8.7459,90.10
2017-07-08 14:00,5.76,7.878,8.7531,90.00
2017-07-08 15:00,5.69,7.840,8.7693,89.40
2017-07-08 16:00,5.65,7.806,8.7709,89.00
2017-07-08 17:00,5.63,7.799,8.7831,88.80
2017-07-08 18:00,5.65,7.806,8.7808,88.90
2017-07-08 19:00,5.66,7.813,8.7686,89.10
2017-07-08 20:00,5.72,7.853,8.7549,89.70
2017-07-08 21:00,5.79,7.887,8.7436,90.20
2017-07-08 22:00,5.82,7.887,8.7339,90.30
2017-07-08 23:00,5.82,7.889,8.7364,90.30
2017-07-09 00:00,5.80,7.876,8.7409,90.10
2017-07-09 01:00,5.69,7.824,8.7714,89.20
2017-07-09 02:00,5.71,7.837,8.7668,89.40
2017-07-09 03:00,5.65,7.752,8.7796,88.30
2017-07-09 04:00,5.79,7.873,8.7481,90.00
2017-07-09 05:00,5.77,7.873,8.7481,90.00
2017-07-09 06:00,5.74,7.822,8.7590,89.30
2017-07-09 07:00,5.64,7.741,8.7769,88.20
2017-07-09 08:00,5.67,7.779,8.7703,88.70
2017-07-09 09:00,5.62,7.730,8.7841,88.00
2017-07-09 10:00,5.64,7.793,8.7756,88.80
2017-07-09 11:00,5.64,7.790,8.7730,88.80
2017-07-09 12:00,5.66,7.795,8.7682,88.90
2017-07-09 13:00,5.63,7.761,8.7798,88.40
2017-07-09 14:00,5.63,7.743,8.7794,88.20
2017-07-09 15:00,5.67,7.775,8.7653,88.70
2017-07-09 16:00,5.65,7.741,8.7769,88.20
2017-07-09 17:00,5.69,7.793,8.7657,88.90
2017-07-09 18:00,5.70,7.779,8.7604,88.80
2017-07-09 19:00,5.69,7.775,8.7653,88.70
2017-07-09 20:00,5.70,7.790,8.7632,88.90
2017-07-09 21:00,5.66,7.759,8.7773,88.40
2017-07-09 22:00,5.68,7.775,8.7653,88.70
2017-07-09 23:00,5.69,7.804,8.7684,89.00
2017-07-10 00:00,5.72,7.842,8.7620,89.50
2017-07-10 02:00,5.71,7.804,8.7586,89.10
2017-07-10 03:00,5.71,7.817,8.7638,89.20
2017-07-10 04:00,5.70,7.815,8.7613,89.20
2017-07-10 05:00,5.72,7.802,8.7561,89.10
2017-07-10 06:00,5.72,7.817,8.7540,89.30
2017-07-10 07:00,5.70,7.788,8.7606,88.90
2017-07-10 08:00,5.71,7.808,8.7636,89.10
2017-07-10 09:00,5.74,7.829,8.7567,89.40
2017-07-10 10:00,5.74,7.822,8.7590,89.30
2017-07-10 11:00,5.71,7.837,8.7668,89.40
2017-07-10 12:00,5.71,7.837,8.7570,89.50
2017-07-10 13:00,5.71,7.811,8.7563,89.20
2017-07-10 14:00,5.70,7.799,8.7634,89.00
2017-07-10 15:00,5.70,7.806,8.7611,89.10
2017-07-10 16:00,5.70,7.781,8.7629,88.80
2017-07-10 17:00,5.70,7.777,8.7678,88.70
2017-07-10 18:00,5.68,7.741,8.7669,88.30
2017-07-10 19:00,5.71,7.788,8.7606,88.90
2017-07-10 20:00,5.70,7.773,8.7627,88.70
2017-07-10 21:00,5.71,7.781,8.7629,88.80
2017-07-10 22:00,5.71,7.777,8.7579,88.80
2017-07-10 23:00,5.75,7.860,8.7526,89.80
2017-07-11 00:00,5.73,7.826,8.7542,89.40
2017-07-11 01:00,5.69,7.752,8.7697,88.40
2017-07-11 02:00,5.68,7.734,8.7692,88.20
2017-07-11 03:00,5.68,7.748,8.7646,88.40
2017-07-11 04:00,5.68,7.734,8.7692,88.20
2017-07-11 05:00,5.64,7.681,8.7780,87.50
2017-07-11 06:00,5.64,7.674,8.7803,87.40
2017-07-11 07:00,5.64,7.661,8.7750,87.30
2017-07-11 08:00,5.62,7.674,8.7803,87.40
2017-07-11 09:00,5.62,7.667,8.7827,87.30
2017-07-11 10:00,5.61,7.665,8.7801,87.30
2017-07-11 11:00,5.63,7.723,8.7765,88.00
2017-07-11 12:00,5.68,7.748,8.7745,88.30
2017-07-11 13:00,5.68,7.752,8.7697,88.40
2017-07-11 14:00,5.75,7.858,8.7502,89.80
2017-07-11 15:00,5.74,7.826,8.7542,89.40
2017-07-11 16:00,5.67,7.759,8.7674,88.50
2017-07-11 17:00,5.61,7.665,8.7801,87.30
2017-07-11 18:00,5.62,7.654,8.7774,87.20
2017-07-11 19:00,5.61,7.643,8.7847,87.00
2017-07-11 20:00,5.65,7.685,8.7731,87.60
2017-07-11 21:00,5.64,7.681,8.7780,87.50
2017-07-11 22:00,5.63,7.663,8.7776,87.30
2017-07-11 23:00,5.60,7.636,8.7871,86.90
2017-07-12 00:00,5.58,7.636,8.7871,86.90
2017-07-12 01:00,5.59,7.645,8.7872,87.00
2017-07-12 02:00,5.62,7.678,8.7855,87.40
2017-07-12 03:00,5.61,7.663,8.7876,87.20
2017-07-12 04:00,5.63,7.712,8.7837,87.80
2017-07-12 05:00,5.60,7.661,8.7851,87.20
2017-07-12 06:00,5.68,7.799,8.7732,88.90
2017-07-12 07:00,5.70,7.790,8.7632,88.90
2017-07-12 08:00,5.71,7.795,8.7584,89.00
2017-07-12 09:00,5.69,7.793,8.7657,88.90
2017-07-12 10:00,5.71,7.795,8.7584,89.00
2017-07-12 11:00,5.74,7.793,8.7558,89.00
2017-07-12 12:00,5.70,7.790,8.7632,88.90
2017-07-12 13:00,5.63,7.737,8.7817,88.10
2017-07-12 14:00,5.63,7.773,8.7825,88.50
2017-07-12 15:00,5.61,7.766,8.7849,88.40
2017-07-12 16:00,5.67,7.788,8.7705,88.80
2017-07-12 17:00,5.67,7.793,8.7756,88.80
2017-07-12 18:00,5.66,7.703,8.7735,87.80
2017-07-12 19:00,5.61,7.625,8.7843,86.80
2017-07-12 20:00,5.58,7.609,8.7865,86.60
2017-07-12 21:00,5.59,7.598,8.7938,86.40
2017-07-12 22:00,5.59,7.587,8.7911,86.30
2017-07-12 23:00,5.58,7.589,8.7937,86.30
2017-07-13 00:00,5.57,7.611,8.7890,86.60
2017-07-13 01:00,5.58,7.609,8.7865,86.60
2017-07-13 02:00,5.56,7.602,8.7889,86.50
2017-07-13 03:00,5.58,7.625,8.7944,86.70
2017-07-13 04:00,5.59,7.654,8.7874,87.10
2017-07-13 05:00,5.62,7.652,8.7849,87.10
2017-07-13 06:00,5.61,7.618,8.7867,86.70
2017-07-13 07:00,5.59,7.582,8.7859,86.30
2017-07-13 08:00,5.62,7.620,8.7791,86.80
2017-07-13 09:00,5.67,7.654,8.7673,87.30
2017-07-13 10:00,5.63,7.634,8.7845,86.90
2017-07-13 11:00,5.68,7.692,8.7707,87.70
2017-07-13 12:00,5.67,7.694,8.7733,87.70
2017-07-13 13:00,5.56,7.618,8.7968,86.60
2017-07-13 14:00,5.59,7.649,8.7823,87.10
2017-07-13 15:00,5.58,7.654,8.7874,87.10
2017-07-13 16:00,5.55,7.625,8.7944,86.70
2017-07-13 17:00,5.61,7.649,8.7823,87.10
2017-07-13 18:00,5.57,7.575,8.7883,86.20
2017-07-13 19:00,5.62,7.602,8.7787,86.60
2017-07-13 20:00,5.66,7.649,8.7722,87.20
2017-07-13 21:00,5.71,7.717,8.7589,88.10
2017-07-13 22:00,5.69,7.696,8.7658,87.80
2017-07-13 23:00,5.69,7.692,8.7607,87.80
2017-07-14 00:00,5.71,7.719,8.7614,88.10
2017-07-14 01:00,5.68,7.692,8.7707,87.70
2017-07-14 02:00,5.65,7.643,8.7746,87.10
2017-07-14 03:00,5.65,7.643,8.7746,87.10
2017-07-14 04:00,5.66,7.667,8.7727,87.40
2017-07-14 05:00,5.66,7.652,8.7748,87.20
2017-07-14 06:00,5.68,7.692,8.7707,87.70
2017-07-14 07:00,5.71,7.723,8.7566,88.20
2017-07-14 08:00,5.74,7.726,8.7591,88.20
2017-07-14 09:00,5.69,7.705,8.7661,87.90
2017-07-14 10:00,5.70,7.705,8.7661,87.90
2017-07-14 11:00,5.70,7.705,8.7661,87.90
2017-07-14 12:00,5.70,7.710,8.7612,88.00
2017-07-14 13:00,5.73,7.730,8.7542,88.30
2017-07-14 14:00,5.73,7.726,8.7591,88.20
2017-07-14 15:00,5.70,7.701,8.7610,87.90
2017-07-14 16:00,5.66,7.625,8.7742,86.90
2017-07-14 17:00,5.67,7.627,8.7667,87.00
2017-07-14 18:00,5.67,7.645,8.7671,87.20
2017-07-14 19:00,5.67,7.647,8.7697,87.20
2017-07-14 20:00,5.68,7.643,8.7645,87.20
2017-07-14 21:00,5.79,7.701,8.7411,88.10
2017-07-14 22:00,5.79,7.661,8.7450,87.60
2017-07-14 23:00,5.78,7.703,8.7436,88.10
2017-07-15 00:00,5.77,7.687,8.7457,87.90
2017-07-15 01:00,5.70,7.634,8.7643,87.10
2017-07-15 02:00,5.71,7.638,8.7594,87.20
2017-07-15 03:00,5.71,7.636,8.7568,87.20
2017-07-15 04:00,5.69,7.596,8.7608,86.70
2017-07-15 05:00,5.68,7.562,8.7727,86.20
2017-07-15 06:00,5.72,7.658,8.7624,87.40
2017-07-15 07:00,5.69,7.634,8.7643,87.10
2017-07-15 08:00,5.75,7.631,8.7517,87.20
2017-07-15 09:00,5.77,7.656,8.7498,87.50
2017-07-15 10:00,5.73,7.614,8.7613,86.90
2017-07-15 11:00,5.72,7.614,8.7613,86.90
2017-07-15 12:00,5.71,7.616,8.7639,86.90
2017-07-15 13:00,5.71,7.629,8.7592,87.10
2017-07-15 14:00,5.71,7.652,8.7647,87.30
2017-07-15 15:00,5.67,7.580,8.7731,86.40
2017-07-15 16:00,5.65,7.549,8.7775,86.00
2017-07-15 17:00,5.67,7.578,8.7705,86.40
2017-07-15 18:00,5.69,7.614,8.7613,86.90
2017-07-15 19:00,5.73,7.623,8.7615,87.00
2017-07-15 20:00,5.72,7.623,8.7615,87.00
2017-07-15 21:00,5.74,7.611,8.7587,86.90
2017-07-15 22:00,5.77,7.607,8.7536,86.90
2017-07-15 23:00,5.75,7.589,8.7531,86.70
2017-07-16 00:00,5.74,7.596,8.7507,86.80
2017-07-16 01:00,5.75,7.598,8.7533,86.80
2017-07-16 02:00,5.74,7.625,8.7540,87.10
2017-07-16 03:00,5.69,7.609,8.7662,86.80
2017-07-16 04:00,5.69,7.591,8.7658,86.60
2017-07-16 05:00,5.68,7.584,8.7681,86.50
2017-07-16 06:00,5.68,7.578,8.7705,86.40
2017-07-16 07:00,5.72,7.602,8.7585,86.80
2017-07-16 08:00,5.73,7.578,8.7604,86.50
2017-07-16 09:00,5.75,7.578,8.7503,86.60
2017-07-16 10:00,5.74,7.587,8.7505,86.70
2017-07-16 11:00,5.75,7.587,8.7505,86.70
2017-07-16 12:00,5.75,7.584,8.7479,86.70
2017-07-16 13:00,5.74,7.582,8.7554,86.60
2017-07-16 14:00,5.70,7.578,8.7604,86.50
2017-07-16 15:00,5.71,7.591,8.7557,86.70
2017-07-16 16:00,5.72,7.591,8.7557,86.70
2017-07-16 17:00,5.70,7.571,8.7627,86.40
2017-07-16 18:00,5.68,7.575,8.7679,86.40
2017-07-16 19:00,5.70,7.607,8.7636,86.80
2017-07-16 20:00,5.73,7.580,8.7528,86.60
2017-07-16 21:00,5.85,7.687,8.7357,88.00
2017-07-16 22:00,5.85,7.656,8.7299,87.70
2017-07-16 23:00,5.79,7.614,8.7412,87.10
2017-07-17 00:00,5.79,7.600,8.7458,86.90
2017-07-17 01:00,5.82,7.643,8.7345,87.50
2017-07-17 02:00,5.95,7.734,8.7100,88.80
2017-07-17 03:00,5.74,7.571,8.7526,86.50
2017-07-17 04:00,5.72,7.571,8.7627,86.40
2017-07-17 05:00,5.67,7.526,8.7718,85.80
2017-07-17 06:00,5.66,7.502,8.7738,85.50
2017-07-17 07:00,5.68,7.528,8.7642,85.90
2017-07-17 08:00,5.73,7.564,8.7550,86.40
2017-07-17 09:00,5.78,7.620,8.7489,87.10
2017-07-17 10:00,5.77,7.542,8.7493,86.20
2017-07-17 11:00,5.80,7.528,8.7439,86.10
2017-07-17 12:00,5.78,7.517,8.7410,86.00
2017-07-17 13:00,5.75,7.560,8.7498,86.40
2017-07-17 14:00,5.76,7.535,8.7517,86.10
2017-07-17 15:00,5.80,7.587,8.7404,86.80
2017-07-17 16:00,5.78,7.609,8.7461,87.00
2017-07-17 17:00,5.74,7.562,8.7524,86.40
2017-07-17 18:00,5.73,7.569,8.7601,86.40
2017-07-17 19:00,5.79,7.643,8.7445,87.40
2017-07-17 20:00,5.77,7.564,8.7448,86.50
2017-07-17 21:00,5.75,7.533,8.7491,86.10
2017-07-17 22:00,5.77,7.513,8.7460,85.90
2017-07-17 23:00,5.81,7.531,8.7363,86.20
2017-07-18 00:00,5.82,7.486,8.7350,85.70
2017-07-18 01:00,5.80,7.497,8.7379,85.80
2017-07-18 02:00,5.77,7.511,8.7536,85.80
2017-07-18 03:00,5.75,7.533,8.7491,86.10
2017-07-18 04:00,5.76,7.502,8.7533,85.70
2017-07-18 05:00,5.73,7.540,8.7569,86.10
2017-07-18 06:00,5.71,7.528,8.7642,85.90
2017-07-18 07:00,5.70,7.479,8.7681,85.30
2017-07-18 08:00,5.72,7.493,8.7531,85.60
2017-07-18 09:00,5.76,7.506,8.7483,85.80
2017-07-18 10:00,5.79,7.520,8.7436,86.00
2017-07-18 11:00,5.86,7.609,8.7260,87.20
2017-07-18 12:00,5.93,7.678,8.7157,88.10
2017-07-18 13:00,5.91,7.670,8.7154,88.00
2017-07-18 14:00,5.77,7.479,8.7476,85.50
2017-07-18 15:00,5.76,7.495,8.7455,85.70
2017-07-18 16:00,5.76,7.506,8.7483,85.80
2017-07-18 17:00,5.72,7.493,8.7633,85.50
2017-07-18 18:00,5.72,7.490,8.7607,85.50
2017-07-18 19:00,5.70,7.439,8.7619,84.90
2017-07-18 20:00,5.72,7.481,8.7605,85.40
2017-07-18 21:00,5.76,7.511,8.7536,85.80
2017-07-18 22:00,5.78,7.540,8.7467,86.20
2017-07-18 23:00,5.85,7.593,8.7280,87.00
2017-07-19 00:00,5.91,7.676,8.7131,88.10
2017-07-19 01:00,5.93,7.687,8.7159,88.20
2017-07-19 02:00,5.93,7.665,8.7103,88.00
2017-07-19 03:00,5.92,7.667,8.7128,88.00
2017-07-19 04:00,5.91,7.665,8.7202,87.90
2017-07-19 05:00,5.82,7.609,8.7360,87.10
2017-07-19 06:00,5.79,7.546,8.7444,86.30
2017-07-19 07:00,5.75,7.533,8.7491,86.10
2017-07-19 08:00,5.72,7.475,8.7629,85.30
2017-07-19 09:00,5.75,7.533,8.7491,86.10
2017-07-19 10:00,5.83,7.649,8.7322,87.60
2017-07-19 11:00,5.90,7.627,8.7166,87.50
2017-07-19 12:00,5.97,7.670,8.7055,88.10
2017-07-19 13:00,5.92,7.611,8.7186,87.30
2017-07-19 14:00,5.95,7.600,8.7057,87.30
2017-07-19 15:00,5.96,7.593,8.7080,87.20
2017-07-19 16:00,5.97,7.627,8.7066,87.60
2017-07-19 17:00,5.96,7.667,8.7029,88.10
2017-07-19 18:00,5.89,7.631,8.7217,87.50
2017-07-19 19:00,5.86,7.605,8.7309,87.10
2017-07-19 20:00,5.85,7.591,8.7355,86.90
2017-07-19 21:00,5.93,7.634,8.7143,87.60
2017-07-19 22:00,5.94,7.593,8.7080,87.20
2017-07-19 23:00,6.00,7.450,8.6932,85.70
2017-07-20 00:00,6.05,7.481,8.6892,86.10
2017-07-20 01:00,6.04,7.475,8.6915,86.00
2017-07-20 02:00,5.96,7.452,8.7060,85.60
2017-07-20 03:00,5.99,7.479,8.6967,86.00
2017-07-20 04:00,5.97,7.475,8.7017,85.90
2017-07-20 05:00,5.94,7.497,8.7074,86.10
2017-07-20 06:00,5.92,7.553,8.7118,86.70
2017-07-20 07:00,5.92,7.567,8.7172,86.80
2017-07-20 08:00,5.91,7.555,8.7143,86.70
2017-07-20 09:00,5.94,7.549,8.7066,86.70
2017-07-20 10:00,5.90,7.553,8.7218,86.60
2017-07-20 11:00,5.94,7.497,8.7074,86.10
2017-07-20 12:00,5.95,7.486,8.7147,85.90
2017-07-20 13:00,5.95,7.475,8.7118,85.80
2017-07-20 14:00,5.94,7.464,8.7089,85.70
2017-07-20 15:00,5.93,7.461,8.7165,85.60
2017-07-20 16:00,5.97,7.470,8.7066,85.80
2017-07-20 17:00,5.98,7.472,8.6990,85.90
2017-07-20 18:00,5.96,7.477,8.7043,85.90
2017-07-20 19:00,5.97,7.472,8.7092,85.80
2017-07-20 20:00,5.94,7.479,8.7069,85.90
2017-07-20 21:00,5.92,7.490,8.7199,85.90
2017-07-20 22:00,5.87,7.517,8.7309,86.10
2017-07-20 23:00,5.89,7.464,8.7191,85.60
2017-07-21 00:00,5.89,7.459,8.7240,85.50
2017-07-21 01:00,5.99,7.546,8.7040,86.70
2017-07-21 02:00,5.94,7.499,8.7100,86.10
2017-07-21 03:00,5.94,7.470,8.7066,85.80
2017-07-21 04:00,5.95,7.466,8.7115,85.70
2017-07-21 05:00,5.96,7.493,8.7022,86.10
2017-07-21 06:00,5.92,7.517,8.7207,86.20
2017-07-21 07:00,5.92,7.477,8.7144,85.80
2017-07-21 08:00,5.87,7.452,8.7264,85.40
2017-07-21 09:00,5.84,7.437,8.7285,85.20
2017-07-21 10:00,5.89,7.452,8.7264,85.40
2017-07-21 11:00,5.90,7.430,8.7206,85.20
2017-07-21 12:00,5.88,7.414,8.7227,85.00
2017-07-21 13:00,5.92,7.470,8.7167,85.70
2017-07-21 14:00,6.00,7.423,8.7025,85.30
2017-07-21 15:00,6.00,7.423,8.6923,85.40
2017-07-21 16:00,6.00,7.410,8.6969,85.20
2017-07-21 17:00,5.99,7.403,8.6993,85.10